Location: Newark
(34.9500°N, 139.9667°E)
Time: 10:24:52
(UTC+00:00)

Altair - Pass Details

Date: 15 December 2019
Orbit: 1502 x 1682 km, 47.2° (Epoch: 26 January)

Event Time Altitude Azimuth Distance (km) Brightness Sun altitude
Exits shadow 17:32:10 17° 146° (SSE) 3,150 9.2 -50.0°
Drops below altitude 10° 17:33:48 10° 144° (SE) 3,660 9.7 -49.7°
Sets 17:36:52 0° 141° (SE) 4,653 10.3 -49.0°
